GEFSSGP_con_prob3kmehi_048.txt.gz
EHI
0 0 0 0 0 0 0 0 0 0 0 0 0 0 0 0 0 0 0 0 0 3 7 4 1 0 0 2 4 6 8 7 5 2 1 0 0 0 0 0 0 0 0 0 0 0 0 0 0
0 0 0 0 0 0 0 0 0 0 0 0 0 0 0 0 0 0 0 0 0 3 6 4 1 0 1 2 5 7 9 8 5 2 1 0 0 0 0 0 0 0 0 0 0 0 0 0 0
0 0 0 0 0 0 0 0 0 0 0 0 0 0 0 0 0 0 0 0 0 1 4 5 2 0 1 2 4 7 9 9 7 4 2 1 1 1 0 0 0 0 0 0 0 0 0 0 0
0 0 0 0 0 0 0 0 0 0 0 0 0 0 0 0 0 0 0 0 0 0 3 6 4 1 0 1 2 4 8 10 9 7 5 4 3 2 1 1 0 0 0 0 0 0 0 0 0
0 0 0 0 0 0 0 0 0 0 0 0 0 0 0 0 0 0 0 0 0 0 3 7 6 1 0 0 2 4 8 12 12 10 8 7 5 3 2 1 0 0 0 0 0 0 0 0 0
0 0 0 0 0 0 0 0 0 0 0 0 0 0 0 0 0 0 0 0 0 0 3 7 5 1 0 1 3 6 9 11 12 12 11 9 7 3 1 1 0 0 0 0 0 0 0 0 0
0 0 0 0 0 0 0 0 0 0 0 0 0 0 0 0 0 0 0 0 0 0 1 3 2 0 0 0 2 4 6 7 8 10 11 10 8 5 3 2 1 0 0 0 0 0 0 0 0
0 0 0 0 0 0 0 0 0 0 0 0 0 0 1 2 1 0 0 0 0 0 0 0 0 0 0 0 0 1 1 2 2 4 6 7 6 6 5 4 3 2 1 0 0 0 0 0 0
0 0 0 0 0 0 0 0 0 0 0 0 0 0 4 8 6 2 0 0 0 0 0 0 0 0 0 0 0 0 0 1 1 1 2 2 2 3 3 5 7 6 2 1 0 0 0 0 0
0 0 0 0 0 0 0 0 0 0 0 0 2 5 10 16 13 6 2 1 1 0 0 0 0 0 0 0 0 0 1 2 3 3 2 1 0 1 1 5 8 6 2 1 1 1 0 0 1
0 0 0 0 0 0 0 0 0 0 0 1 8 19 25 25 20 12 5 3 2 1 0 0 0 0 1 1 0 0 1 4 5 4 3 2 1 2 2 4 6 4 2 1 2 2 1 2 3
0 0 0 0 0 0 0 0 0 0 1 5 18 38 43 33 23 13 6 4 3 1 0 0 0 1 2 3 2 2 3 5 5 5 4 3 2 3 3 5 5 3 2 2 2 2 3 4 5
0 0 0 0 0 0 0 0 0 2 6 14 31 48 48 36 23 12 6 5 4 3 2 1 1 3 6 9 9 9 7 5 5 4 3 3 3 4 5 7 8 6 5 6 6 6 7 9 10
0 0 0 0 0 0 0 0 2 5 12 24 39 47 44 33 21 13 9 8 6 4 4 4 5 8 13 16 16 13 9 6 5 4 4 4 5 7 9 12 14 13 12 15 16 15 18 21 21
0 0 0 0 0 0 0 1 5 10 18 29 40 47 45 36 24 16 14 12 8 6 7 7 8 12 18 21 20 15 11 7 6 7 7 6 7 11 15 17 19 22 24 28 30 29 33 35 34
0 0 0 0 0 0 0 3 10 16 23 34 44 50 49 43 32 23 17 14 12 13 14 12 11 14 19 24 23 18 15 12 10 11 12 10 9 13 18 19 21 27 32 37 39 41 45 47 46
0 0 0 0 0 0 1 6 15 21 28 40 50 53 52 48 43 33 24 19 20 23 22 20 18 17 16 19 19 17 15 13 12 14 15 14 12 13 16 18 19 23 31 37 41 48 53 56 57
0 0 0 0 0 1 3 9 17 25 32 43 53 56 54 53 51 46 36 31 31 31 29 25 21 15 9 8 10 11 10 8 8 10 11 11 10 10 11 13 12 14 21 29 37 44 50 56 60
0 0 0 0 0 1 3 8 15 23 30 40 49 53 55 55 55 56 52 46 42 37 31 23 15 9 4 2 4 6 5 3 2 3 4 4 4 4 5 7 7 9 13 19 26 33 40 48 54
0 0 0 0 0 0 1 4 10 15 21 30 38 44 52 57 60 62 61 55 45 38 28 17 10 5 3 2 2 3 4 3 2 2 2 1 0 0 1 3 4 5 8 9 13 20 27 36 43
0 0 0 0 0 0 0 1 2 5 13 24 33 42 54 64 67 64 60 51 40 31 22 12 8 7 6 4 4 5 6 5 4 4 3 1 0 0 0 1 1 2 3 4 5 11 17 24 31
0 0 0 0 0 0 0 0 0 2 10 22 35 46 59 67 66 58 48 37 27 19 12 8 8 11 13 12 11 10 9 6 4 3 3 1 0 0 0 0 0 0 1 1 1 4 9 15 19
0 0 0 0 0 0 0 0 1 3 8 18 29 41 49 52 48 38 27 19 12 7 4 5 9 17 23 24 21 18 13 9 6 5 4 3 2 0 0 0 0 0 0 0 0 1 4 9 12
0 0 0 0 0 0 0 0 1 3 5 10 16 23 27 28 24 16 9 6 3 1 1 4 11 22 29 31 30 27 21 16 13 10 7 5 2 1 0 0 0 0 0 0 0 0 1 4 7
0 0 0 0 0 0 0 0 0 1 3 4 5 8 12 14 12 7 4 3 2 2 2 6 13 22 28 33 37 37 30 21 17 13 8 4 1 1 1 1 1 0 0 0 0 0 1 3 4
0 0 0 0 0 0 0 0 0 0 1 1 1 3 5 7 7 6 5 4 3 4 5 9 16 23 29 36 42 44 37 26 19 16 11 6 2 1 2 3 2 1 0 0 0 0 1 2 3
0 0 0 0 0 0 0 0 0 0 0 0 0 1 1 2 2 3 3 2 2 3 5 9 15 21 29 35 38 39 38 33 28 24 19 13 9 5 3 3 3 1 0 0 0 0 0 1 2
0 0 0 0 0 0 0 0 0 1 0 0 0 0 0 0 0 0 0 0 0 1 2 5 9 14 19 24 26 27 29 32 32 29 26 22 16 9 4 3 3 3 1 0 0 0 0 0 1
0 0 0 0 0 0 0 0 0 0 0 0 0 0 0 0 0 0 0 0 0 0 0 1 3 5 7 11 14 16 18 21 23 24 24 24 21 12 5 3 4 4 3 1 0 0 0 0 0
0 0 0 0 0 0 0 0 0 0 0 0 0 0 0 0 0 0 0 0 0 0 0 0 0 1 2 4 7 10 12 14 16 17 19 23 23 14 5 3 5 5 4 2 1 0 0 0 0

GEFSSGP_con_prob3kmehi_054.txt.gz
EHI
0 1 4 11 14 11 5 2 0 0 0 0 0 0 1 2 2 1 2 21 44 35 15 17 18 9 1 0 0 0 0 0 0 0 0 0 0 0 0 0 0 0 0 0 0 0 0 0 0
1 1 3 6 8 5 2 1 0 0 0 0 0 0 0 1 1 0 3 21 37 26 10 15 18 9 1 0 0 0 0 0 0 0 0 0 0 0 0 0 0 0 0 0 0 0 0 0 0
0 1 1 1 1 1 0 0 0 0 0 0 0 0 0 0 0 0 3 16 23 13 6 13 16 8 1 0 0 0 0 0 0 0 0 0 0 0 0 0 0 0 0 0 0 0 0 0 0
0 0 0 0 0 0 0 0 0 0 0 0 0 0 0 0 0 0 2 8 10 7 6 12 13 7 1 0 0 0 0 0 0 0 0 0 0 0 0 0 0 0 0 0 0 0 0 0 0
0 0 0 0 0 0 0 0 0 0 0 0 0 0 0 0 0 0 1 4 8 13 14 12 12 8 1 0 0 0 0 0 0 0 0 0 0 0 0 0 0 0 0 0 0 0 0 0 0
0 0 0 0 0 0 0 0 0 0 0 0 0 0 0 0 0 0 1 2 11 26 26 13 8 6 1 0 0 0 0 0 0 0 0 0 0 0 0 0 0 0 0 0 0 0 0 0 0
0 0 0 0 0 0 0 0 0 0 0 0 0 1 0 0 0 0 0 1 15 38 37 14 3 2 0 0 0 0 0 0 0 0 0 0 0 0 1 1 1 0 0 1 1 1 1 1 1
0 0 0 0 0 0 0 0 0 0 0 0 0 0 0 0 0 0 0 1 16 40 39 16 2 1 0 1 1 1 0 0 0 1 1 1 0 2 7 10 9 6 4 5 6 5 5 5 5
0 0 0 0 0 0 0 0 0 0 0 2 5 5 2 1 0 0 0 1 12 31 33 19 10 6 2 6 9 6 1 2 2 5 9 9 4 4 12 23 28 27 24 22 21 17 13 10 8
0 0 0 0 0 0 0 0 0 0 3 9 17 17 9 3 2 1 1 4 10 20 22 23 25 17 4 12 22 14 9 15 15 14 24 28 19 9 12 30 48 52 48 42 35 27 18 11 6
0 0 0 0 0 0 0 0 0 0 4 12 23 25 16 10 10 9 8 12 17 17 14 24 37 28 11 16 26 20 20 34 37 34 42 48 41 24 16 34 58 65 59 49 39 31 22 12 8
0 0 0 0 0 0 0 0 0 1 3 9 17 21 19 20 23 22 21 25 28 24 18 30 49 45 26 21 25 23 26 40 51 59 63 63 59 43 34 47 64 67 62 52 41 34 29 21 15
0 0 0 0 0 0 0 0 0 2 4 7 11 15 19 24 33 38 38 41 43 36 31 44 63 66 53 43 38 31 33 42 55 69 77 74 70 62 56 64 70 66 61 55 43 36 34 30 26
0 0 0 0 0 0 0 0 0 2 5 8 11 14 18 27 39 51 58 61 57 48 46 59 74 81 79 71 59 44 41 49 59 72 81 81 80 77 73 72 71 63 55 50 43 37 35 36 34
0 0 0 0 0 0 0 0 1 3 6 8 12 15 23 37 50 62 74 76 67 61 67 73 76 84 90 84 71 55 48 55 69 78 84 86 86 83 75 70 67 61 55 51 46 40 38 37 34
0 0 0 0 0 0 0 1 3 5 6 10 14 20 34 53 62 69 79 82 77 78 86 83 76 83 90 85 73 60 55 61 71 79 84 85 80 72 66 62 59 57 55 52 45 40 40 36 32
0 0 0 0 0 0 0 1 4 4 6 12 19 28 46 66 73 75 80 82 85 90 94 89 83 84 86 82 70 59 56 57 58 65 71 69 59 50 47 47 46 45 46 44 37 37 40 38 34
0 0 0 0 0 0 0 1 3 2 4 12 23 35 51 68 76 79 80 81 86 91 92 91 88 85 80 73 64 56 51 44 39 45 50 43 31 25 24 27 30 31 32 31 29 29 31 32 33
0 0 0 0 0 0 0 0 1 2 7 16 26 37 49 62 72 78 78 79 82 85 85 85 84 79 70 63 57 52 46 33 24 28 32 25 13 9 10 12 16 18 18 18 18 17 17 19 22
0 0 0 0 0 0 0 0 3 8 15 23 29 39 49 60 72 77 74 73 74 76 76 76 76 70 61 53 45 41 37 25 17 21 26 21 12 7 7 8 8 9 9 9 9 8 7 8 9
0 0 0 0 0 0 0 1 6 15 23 27 32 42 53 64 72 73 69 66 65 66 66 70 72 67 60 52 41 36 34 26 22 26 31 28 18 12 10 9 7 7 6 5 4 3 2 3 3
0 0 0 0 0 0 0 1 8 21 28 28 31 41 51 59 64 63 61 58 55 56 61 68 71 69 65 59 53 48 44 40 40 43 45 39 27 18 16 15 14 13 10 5 2 1 1 1 1
0 0 0 0 0 0 0 0 7 21 28 27 30 37 43 47 52 53 50 46 43 44 53 61 66 68 67 66 66 64 61 59 59 59 58 51 39 30 26 26 27 25 18 10 6 4 1 0 0
0 0 0 0 0 0 0 0 6 18 26 27 28 32 36 37 39 40 38 35 31 31 39 48 56 60 62 62 64 67 69 69 67 64 63 58 51 45 40 40 42 37 27 18 12 8 4 1 0
0 0 0 0 0 0 0 3 10 19 25 26 25 26 27 26 25 23 22 22 20 21 26 34 43 48 50 50 54 61 66 67 66 63 61 59 57 54 52 51 50 42 30 21 13 9 6 3 1
0 0 0 0 0 0 0 4 12 18 19 18 17 16 15 13 12 11 9 10 10 11 15 20 25 30 32 34 39 46 52 54 57 60 59 57 55 52 51 52 49 41 29 19 13 9 6 5 4
0 0 0 0 0 0 0 3 8 10 8 6 6 7 7 6 5 5 3 2 3 4 5 7 9 12 14 16 20 26 30 35 42 48 50 50 49 45 42 44 42 36 27 20 15 10 6 6 6
0 0 0 0 0 0 0 2 6 7 4 1 1 3 3 2 1 1 0 0 1 1 2 2 3 3 4 5 6 8 12 16 21 28 33 37 38 36 33 35 34 29 24 21 16 9 5 5 6
0 0 0 0 0 0 0 4 10 11 5 1 1 2 2 1 0 0 0 0 0 0 1 1 1 1 1 1 1 2 3 4 6 10 15 18 20 22 22 24 25 20 17 17 13 5 3 3 4
0 0 0 0 0 0 0 5 13 12 5 1 0 1 1 0 0 0 0 0 0 0 0 0 0 0 0 0 0 1 1 1 1 2 4 5 7 9 12 16 16 12 12 13 8 3 1 3 3

GEFSSGP_con_prob3kmehi_060.txt.gz
EHI
0 0 0 0 0 1 1 1 0 0 0 0 0 0 0 0 0 0 0 2 10 20 29 43 52 41 20 7 2 0 0 0 0 0 0 0 0 0 0 0 0 0 0 0 0 0 0 0 0
0 0 0 0 0 0 0 0 0 0 0 0 0 0 0 0 0 0 0 4 15 25 31 43 55 48 28 13 6 2 1 1 1 0 0 0 0 0 0 0 0 0 0 0 0 0 0 0 0
0 0 0 0 0 0 0 0 0 0 0 0 0 0 0 0 0 0 1 7 18 24 29 47 63 59 41 25 15 8 4 2 2 1 0 0 0 0 0 0 0 0 0 0 0 0 0 0 0
0 0 0 0 0 0 0 1 0 0 0 0 0 0 0 3 6 6 5 9 17 19 25 50 71 70 54 37 24 14 7 4 3 1 0 0 0 0 0 0 0 0 0 0 0 0 0 0 0
0 0 0 0 0 0 0 0 0 0 0 0 0 0 0 8 18 16 9 9 15 18 24 48 73 77 64 46 30 19 11 6 3 1 0 0 0 0 0 0 0 0 0 0 0 0 0 0 0
0 0 0 0 0 0 0 0 0 0 0 0 0 0 0 10 23 19 8 5 12 17 22 39 62 71 65 51 34 21 14 7 3 1 0 0 0 0 0 0 0 0 0 0 0 0 0 0 0
0 0 0 0 0 0 0 0 0 0 0 0 0 0 1 8 15 13 7 6 9 14 18 28 40 47 47 42 30 19 12 6 2 1 0 0 0 0 0 0 0 0 0 0 0 0 0 0 0
0 0 0 0 0 0 0 0 0 2 2 2 2 1 1 4 10 14 17 17 13 10 12 18 21 20 19 19 17 12 6 3 1 0 0 0 0 0 0 1 1 1 0 1 1 1 0 0 0
0 0 0 0 0 0 0 0 1 4 5 4 3 2 2 4 13 28 39 38 28 14 8 9 11 8 4 4 5 4 1 0 0 0 0 0 0 0 0 1 2 2 3 4 5 4 2 1 0
0 0 0 0 0 0 0 1 3 5 6 5 4 3 4 8 20 41 59 61 47 27 11 5 5 6 3 1 1 1 0 0 0 0 0 0 0 0 0 0 1 3 4 6 8 9 7 4 2
0 0 0 0 0 0 0 1 4 6 5 4 4 4 7 11 21 39 60 69 61 39 20 9 5 5 3 1 0 0 0 0 0 0 0 1 1 1 0 0 1 2 3 5 6 8 9 8 7
0 0 0 0 0 0 0 1 3 4 3 3 3 3 6 10 17 28 45 61 64 51 33 20 12 8 6 4 3 3 3 2 2 3 3 4 4 3 2 1 1 2 3 3 4 6 8 10 10
0 0 0 0 0 0 0 0 1 2 2 3 4 4 5 8 13 19 31 48 60 58 46 35 25 17 13 11 10 10 10 10 10 11 12 14 13 9 5 3 2 3 3 2 3 4 5 7 8
0 0 0 0 0 0 0 0 0 2 4 5 7 8 9 10 14 22 31 42 51 55 56 51 42 34 30 30 29 27 26 23 22 22 25 27 24 16 10 7 5 3 2 1 2 2 3 4 4
0 0 0 0 0 0 0 0 1 5 10 12 12 14 15 16 20 27 35 40 42 47 54 58 55 51 51 53 54 51 45 38 33 31 33 37 33 24 17 12 7 4 2 1 1 1 1 1 1
0 0 0 0 0 0 0 1 4 12 19 21 20 21 23 23 25 30 35 39 38 39 44 49 54 57 60 64 64 60 53 44 38 34 33 36 36 30 22 14 7 3 2 1 0 0 0 0 0
0 0 0 0 0 0 1 4 10 17 24 26 27 31 34 32 31 31 33 35 34 33 33 35 41 49 54 56 55 50 43 36 30 27 25 25 27 25 20 12 5 1 1 1 0 0 0 0 0
0 0 0 0 0 0 2 6 12 18 24 29 34 41 44 42 35 29 26 24 23 24 25 26 28 33 37 39 38 32 25 19 16 15 15 14 15 16 13 7 2 1 1 1 0 0 0 0 0
0 0 0 0 0 0 2 7 12 17 24 32 39 43 45 40 31 22 15 11 11 13 17 19 17 17 19 21 20 15 10 7 7 7 7 7 7 8 7 4 2 3 2 1 0 0 0 0 0
0 0 0 0 0 0 1 5 10 16 25 33 38 39 36 29 22 14 8 5 5 7 9 10 9 8 9 9 8 6 4 3 3 3 3 2 2 3 3 3 3 4 3 1 0 0 0 0 0
0 0 0 0 0 0 1 3 8 14 22 27 30 29 24 19 14 7 4 3 3 3 4 4 4 4 5 4 5 6 3 2 1 1 1 0 0 1 2 3 4 4 3 2 1 0 0 0 0
0 0 0 0 0 0 0 1 4 9 14 17 18 16 13 11 7 2 1 1 1 1 1 2 2 2 2 3 4 5 4 2 0 0 0 0 0 1 2 2 2 2 2 2 1 0 0 0 0
0 0 0 0 0 0 0 0 1 4 7 7 6 5 4 5 3 1 0 0 0 0 0 1 1 1 0 1 2 3 2 2 2 1 0 0 0 1 1 1 0 1 1 1 0 0 0 0 0
0 0 0 0 0 0 0 0 0 1 2 3 2 0 1 2 1 0 0 0 0 0 0 0 0 0 0 0 1 1 1 2 3 2 1 1 1 1 0 0 0 0 0 0 0 0 0 0 0
0 0 0 0 0 0 0 0 0 0 1 2 2 1 0 0 0 0 0 0 0 0 0 0 0 0 0 0 0 0 0 1 1 1 1 1 1 0 0 0 0 0 0 0 0 0 0 0 0
0 0 0 0 0 0 0 0 0 0 1 2 2 1 0 0 0 0 0 0 0 0 0 0 0 0 0 0 0 0 0 0 0 0 1 1 0 0 0 0 0 0 0 0 0 0 0 0 0
0 0 0 0 0 0 0 0 0 0 0 1 1 0 0 0 0 0 0 0 0 0 0 0 0 0 0 0 0 0 0 0 0 0 0 0 0 0 0 0 0 0 0 0 0 0 0 0 0
0 0 0 0 0 0 0 0 0 0 0 0 0 0 0 0 0 0 0 0 0 0 0 0 0 0 0 0 0 0 0 0 0 0 0 0 0 0 0 0 0 0 0 0 0 0 0 0 0
0 0 0 0 0 0 0 0 0 0 0 0 0 0 0 0 0 0 0 0 0 0 0 0 0 0 0 0 0 0 0 0 0 0 0 0 0 0 0 0 0 0 0 0 0 0 0 0 0
0 0 0 0 0 0 0 0 0 0 0 0 0 0 0 0 0 0 0 0 0 0 0 0 0 0 0 0 0 0 0 0 0 0 0 0 0 0 0 0 0 0 0 0 0 0 0 0 0

GEFSSGP_con_prob3kmehi_066.txt.gz
EHI
0 0 0 0 0 0 0 0 0 0 0 0 0 0 1 1 1 0 0 0 5 10 10 12 14 13 10 9 5 2 2 3 5 6 5 3 2 1 0 0 0 0 0 0 0 0 0 0 0
0 0 0 0 0 0 0 0 0 0 0 0 0 0 0 2 3 1 0 1 6 11 10 14 21 22 18 14 9 5 2 2 3 4 3 1 1 0 0 0 0 0 0 0 0 0 0 0 0
0 0 0 0 0 0 0 0 0 0 0 0 0 0 0 2 4 2 0 2 9 12 12 21 35 37 30 25 17 9 3 1 1 1 1 0 0 0 0 0 0 0 0 0 0 0 0 0 0
0 0 0 0 0 0 0 0 0 0 0 0 0 0 0 2 3 2 0 4 13 18 18 30 50 55 47 39 28 16 7 2 0 1 1 1 0 0 0 0 0 0 0 0 0 0 0 0 0
0 0 0 0 0 0 0 0 0 0 0 0 0 0 0 2 4 4 3 5 14 23 26 38 60 69 62 53 43 30 17 8 3 2 1 1 0 0 0 0 0 0 0 0 0 0 0 0 0
0 0 0 0 0 0 0 0 0 0 0 0 0 0 1 4 7 8 7 8 17 29 35 46 63 72 70 63 55 46 32 18 9 4 1 0 0 0 0 0 0 0 0 0 0 0 0 0 0
0 0 0 0 0 0 0 0 0 0 0 0 0 0 2 6 11 13 13 15 24 36 45 52 60 66 68 65 59 52 40 26 13 5 1 0 0 0 0 0 0 0 0 0 0 0 0 0 0
0 0 0 0 0 0 0 0 0 0 0 1 1 0 6 18 26 27 25 26 32 40 47 52 56 58 59 58 55 49 39 26 13 6 3 1 0 0 0 0 0 0 0 0 0 0 0 0 0
0 0 0 0 0 0 0 0 0 0 0 1 1 3 19 44 53 46 38 34 35 36 37 42 49 51 50 48 45 41 33 21 11 6 4 2 1 0 0 0 0 0 0 0 0 0 0 0 0
0 0 0 0 0 0 0 0 0 0 0 1 2 11 38 68 73 58 43 35 30 26 24 29 36 41 42 40 36 34 28 19 12 7 4 2 1 0 0 0 0 0 0 0 0 0 0 0 0
0 0 0 0 0 0 0 0 0 0 0 0 3 20 53 77 77 61 44 34 28 21 18 21 27 32 33 32 29 28 24 17 12 9 6 3 1 0 0 0 0 0 0 0 0 0 0 0 0
0 0 0 0 0 0 0 0 0 0 0 1 8 28 55 72 71 60 48 42 37 28 22 21 24 26 25 23 22 22 20 15 11 9 7 6 4 2 0 0 0 0 0 0 0 0 0 0 0
0 0 0 0 0 0 0 0 0 0 1 4 14 32 50 58 58 54 51 49 46 38 29 23 22 20 20 20 17 16 15 12 10 8 8 10 8 5 2 2 1 1 0 0 0 0 0 0 0
0 0 0 0 0 0 0 1 1 1 3 9 20 32 43 46 45 47 50 48 44 37 28 22 19 18 20 21 19 15 12 10 9 9 9 10 9 7 5 3 1 0 0 0 1 0 0 0 0
0 0 0 0 0 0 0 1 2 2 6 13 22 31 37 38 37 39 40 37 32 27 23 20 20 21 21 22 21 18 15 13 11 9 7 7 7 6 5 3 1 0 0 0 0 0 0 0 0
0 0 0 0 0 0 1 2 2 3 8 14 20 26 30 30 27 25 24 22 21 19 18 18 19 21 21 20 19 17 16 13 11 7 4 4 5 6 5 4 2 1 0 0 0 0 0 0 0
0 0 0 0 0 1 3 4 5 7 10 15 19 22 24 22 17 14 12 12 14 14 14 14 14 15 15 15 13 11 10 9 8 7 5 4 5 6 4 3 2 1 0 0 0 0 0 0 0
0 0 0 0 0 2 4 6 7 10 13 17 19 19 18 16 12 9 8 8 9 9 9 9 8 8 9 9 8 6 4 4 6 7 5 4 4 4 3 1 1 0 0 0 0 0 0 0 0
0 0 0 0 0 1 4 6 6 8 11 13 14 14 11 9 7 6 6 5 5 5 5 5 4 4 6 7 6 5 3 3 4 4 3 2 1 2 2 1 0 0 0 0 0 0 0 0 0
0 0 0 0 0 0 1 3 3 4 6 6 7 6 5 3 3 3 3 2 1 1 2 2 1 2 3 4 4 3 1 1 1 1 1 0 0 0 0 0 0 0 0 0 0 0 0 0 0
0 0 0 0 0 0 0 1 1 1 2 2 1 1 1 1 1 1 1 0 0 0 0 0 0 1 1 1 1 1 0 0 0 0 0 0 0 0 0 0 0 0 0 0 0 0 0 0 0
0 0 0 0 0 0 0 0 0 0 0 0 0 0 0 1 1 0 0 0 0 0 0 0 0 0 0 0 0 0 0 0 0 0 0 0 0 0 0 0 0 0 0 0 0 0 0 0 0
0 0 0 0 0 0 0 0 0 0 0 0 0 0 0 0 0 0 0 0 0 0 0 0 0 0 0 0 0 0 0 0 0 0 0 0 0 0 0 0 0 0 0 0 0 0 0 0 0
0 0 0 0 0 0 0 0 0 0 0 0 0 0 0 0 0 0 0 0 0 0 0 0 0 0 0 0 0 0 0 0 0 0 0 0 0 0 0 0 0 0 0 0 0 0 0 0 0
0 0 0 0 0 0 0 0 0 0 0 0 0 0 0 0 0 0 0 0 0 0 0 0 0 0 0 0 0 0 0 0 0 0 0 0 0 0 0 0 0 0 0 0 0 0 0 0 0
0 0 0 0 0 0 0 0 0 0 0 0 0 0 0 0 0 0 0 0 0 0 0 0 0 0 0 0 0 0 0 0 0 0 0 0 0 0 0 0 0 0 0 0 0 0 0 0 0
0 0 0 0 0 0 0 0 0 0 0 0 0 0 0 0 0 0 0 0 0 0 0 0 0 0 0 0 0 0 0 0 0 0 0 0 0 0 0 0 0 0 0 0 0 0 0 0 0
0 0 0 0 0 0 0 0 0 0 0 0 0 0 0 0 0 0 0 0 0 0 0 0 0 0 0 0 0 0 0 0 0 0 0 0 0 0 0 0 0 0 0 0 0 0 0 0 0
0 0 0 0 0 0 0 0 0 0 0 0 0 0 0 0 0 0 0 0 0 0 0 0 0 0 0 0 0 0 0 0 0 0 0 0 0 0 0 0 0 0 0 0 0 0 0 0 0
0 0 0 0 0 0 0 0 0 0 0 0 0 0 0 0 0 0 0 0 0 0 0 0 0 0 0 0 0 0 0 0 0 0 0 0 0 0 0 0 0 0 0 0 0 0 0 0 0

GEFSSGP_con_prob3kmehi_072.txt.gz
EHI
0 0 0 0 0 0 0 0 0 0 0 0 0 0 0 0 0 2 6 11 16 30 40 31 14 6 3 4 8 15 21 24 21 16 12 9 5 2 1 0 0 0 0 0 0 0 0 0 0
0 0 0 0 0 0 0 0 0 0 0 0 0 0 0 0 1 3 6 11 17 28 36 30 17 7 3 4 9 15 20 21 19 15 11 7 4 2 1 0 0 0 0 0 0 0 0 0 0
0 0 0 0 0 0 0 0 0 0 0 0 0 0 0 0 1 3 6 9 16 24 30 33 23 10 4 4 8 15 20 20 19 15 10 6 4 2 0 0 0 0 0 0 0 0 0 0 0
0 0 0 0 0 0 0 0 0 0 0 0 0 0 0 1 2 4 6 7 11 16 25 33 27 12 5 4 6 12 18 20 19 15 11 7 4 2 0 0 0 0 0 0 0 0 0 0 0
0 0 0 0 0 0 0 0 0 0 0 0 0 0 1 4 5 6 6 6 7 8 19 31 27 14 7 6 7 10 14 15 15 12 9 6 3 1 0 0 0 0 0 0 0 1 1 1 1
0 0 0 0 0 0 0 0 0 0 0 0 0 0 2 7 10 10 8 5 4 4 14 27 25 13 8 6 7 8 9 10 9 8 5 3 1 0 0 0 0 0 0 0 0 1 2 2 2
0 0 0 0 0 0 0 0 0 0 0 0 0 0 4 13 20 19 14 8 5 4 10 20 19 11 7 6 6 7 7 7 7 4 2 1 0 0 0 0 0 0 1 0 0 1 3 3 3
0 0 0 0 0 0 0 0 0 0 0 0 0 2 12 29 39 37 29 20 13 9 9 13 13 10 6 5 6 7 7 7 7 4 2 1 0 0 0 0 0 0 0 0 0 1 2 3 3
0 0 0 0 0 0 0 0 0 0 0 0 2 8 26 50 60 57 50 37 27 19 13 13 14 11 7 6 7 8 8 9 8 7 6 4 2 1 0 2 3 2 0 0 0 0 1 1 2
0 0 0 0 0 0 0 0 0 0 0 1 4 14 34 56 67 67 61 52 42 29 21 18 18 14 10 10 11 10 12 14 14 13 15 13 10 7 4 6 9 5 1 0 0 0 0 1 2
0 0 0 0 0 0 0 0 0 1 0 1 7 19 35 49 58 62 62 59 52 41 30 27 26 23 20 17 15 15 18 22 23 25 28 28 24 19 14 15 15 10 5 4 4 2 2 3 4
0 0 0 0 0 0 0 0 1 2 3 5 12 23 33 41 47 55 61 60 55 48 39 35 35 34 31 28 24 21 21 24 27 31 36 38 37 32 26 25 21 15 12 11 9 6 5 5 5
0 0 0 0 0 0 0 0 1 3 5 11 19 27 34 40 45 53 59 58 54 50 44 37 35 37 39 38 36 29 24 23 25 29 33 37 39 39 35 33 28 20 17 16 13 9 8 8 7
0 0 0 0 0 0 0 0 1 2 5 14 25 33 37 43 49 54 58 59 55 50 43 34 30 34 39 43 42 35 28 25 25 28 29 31 35 38 39 37 32 26 21 19 15 12 11 9 8
0 0 0 0 0 0 0 1 2 2 6 17 29 37 42 46 48 50 54 58 55 48 42 34 28 30 36 41 41 37 33 29 29 29 28 28 30 33 34 32 30 28 25 22 17 14 13 9 6
0 0 0 0 0 0 0 1 3 5 10 21 30 37 42 45 45 44 45 47 46 42 39 33 26 24 28 34 39 39 34 29 27 26 26 26 25 25 24 22 22 26 27 22 16 14 13 9 6
0 0 0 0 0 0 0 2 6 9 14 22 27 31 36 38 37 35 32 32 32 33 33 28 21 16 18 23 30 32 26 21 18 19 21 21 20 18 15 13 15 20 24 20 14 14 14 11 7
0 0 0 0 0 0 1 3 7 10 14 18 20 20 22 24 22 20 19 20 22 23 23 20 15 13 13 15 17 18 17 13 10 12 14 14 13 12 10 10 12 15 17 15 12 11 12 8 5
0 0 0 0 0 1 2 4 6 8 11 12 12 10 10 10 9 8 10 13 14 15 13 11 10 11 12 12 12 13 14 12 9 7 7 7 7 6 7 8 10 11 11 8 7 8 8 5 3
0 0 0 0 0 1 2 4 5 6 6 7 6 5 4 3 2 3 6 7 8 9 8 7 6 7 8 10 11 12 13 12 10 7 7 6 4 4 6 7 7 8 6 4 4 6 6 3 2
0 0 0 0 0 0 1 4 5 5 4 4 4 3 1 0 0 1 3 4 5 5 5 5 5 4 5 6 6 7 8 8 7 8 8 5 3 3 5 5 3 3 4 4 5 5 3 2 2
0 0 0 0 0 0 0 3 5 5 3 4 4 3 1 0 0 0 1 1 2 2 2 2 3 3 3 3 2 2 2 2 3 4 5 3 2 1 2 2 1 1 2 4 5 5 3 1 1
0 0 0 0 0 0 0 2 3 4 4 4 3 2 0 0 0 0 0 0 0 0 0 0 1 1 1 1 0 0 0 0 0 1 1 1 1 0 0 0 0 1 3 4 5 5 4 2 1
0 0 0 0 0 0 0 1 3 3 4 4 3 1 0 0 1 1 2 2 1 0 0 0 0 0 1 0 0 0 0 0 0 0 0 1 1 1 0 0 0 2 4 4 4 4 4 3 3
0 0 0 0 0 0 0 2 4 4 3 3 1 0 0 0 1 2 3 3 2 0 0 0 0 0 0 0 0 0 0 1 0 0 0 1 1 1 0 0 0 1 3 3 4 4 4 4 5
0 0 0 0 0 0 0 2 4 3 2 1 0 0 0 0 1 2 2 2 1 0 0 0 0 0 0 0 0 0 0 0 0 0 0 0 0 0 0 0 0 0 1 1 3 4 4 5 5
0 0 0 0 0 0 0 1 1 1 1 0 0 0 0 0 0 1 1 1 0 0 0 0 0 0 0 0 0 0 0 0 0 0 0 0 0 0 0 0 0 0 0 0 1 2 3 4 5
0 0 0 0 0 0 0 0 0 0 0 0 0 0 0 0 0 0 0 0 0 0 0 0 0 0 0 0 0 0 0 0 0 0 0 0 0 0 0 0 0 0 0 0 0 1 1 2 3
0 0 0 0 0 0 0 0 0 0 0 0 0 0 1 0 0 0 0 0 0 0 0 0 0 0 0 0 0 0 0 0 0 0 0 0 0 0 0 0 0 0 0 0 0 0 0 0 1
0 0 0 0 0 0 0 0 0 0 0 0 0 0 1 0 0 0 0 0 0 0 0 0 0 0 0 0 0 0 0 0 0 0 0 0 0 0 0 0 0 0 0 0 0 0 0 0 0